Location: Haram ta Haram Freeway
(35.0583°N, 51.4202°E)
Time: 02:53:17
(UTC+03:30)

IRIDIUM 33 DEB - Pass Details

Date: 03 December 2021
Orbit: 663 x 816 km, 86.4° (Epoch: 21 January)

Event Time Altitude Azimuth Distance (km) Brightness Sun altitude
Rises 17:51:06 0° 146° (SE) 3,338 ? -11.9°
Reaches altitude 10° 17:53:57 10° 132° (SE) 2,407 ? -12.5°
Maximum altitude 17:58:04 22° 82° (E) 1,693 ? -13.3°
Enters shadow 18:00:27 17° 48° (NE) 1,956 ? -13.7°
